Погода в Бендзине

Польша     50°20′08″N   19°07′03″E
темп.,
°C
ветер,
м/с
пор.,
м/с
влажн.,
%
обл.,
%
осадки,
мм/ч
давл.,
гПа
погр.,
м
27 февраля, сб
сб2701:00+5зсз4886100 1.4 1029715
04:00+4сз4885100 0.1 1029728
07:00+4сз4985100 0.1 1030712
10:00+4сз5882100 0.1 1031780
13:00+4сз4881100 0.1 1033687
16:00+4сз4879100 0.0 1033795
19:00+4сз4878100 0.1 1035715
22:00+4зсз3775100 0.1 1036432
28 февраля, вс
вс2801:00+3сз378793 0.1 1037378
04:00+2зсз379189 0.1 1036390
07:00+1зсз359293 0.1 1036351
10:00+2зсз3484100 0.0 1035505
13:00+5з357099 0.0 1034625
16:00+7зсз37601 0.0 1032834
19:00+4зсз37760 0.0 1033325
22:00+4сз388649 0.0 1033522
1 марта, пн
пн101:00+4с358670 0.0 1034451
04:00+2ссз239171 0.0 1034179
07:00+2с129084 0.0 1035208
10:00+3сз1284100 0.0 1035337
13:00+6сз127094 0.0 1035517
16:00+7с11662 0.0 1034573
19:00+5юз11771 0.0 103522
22:00+3юз12850 0.0 103526
2 марта, вт
вт201:00+2юз11880 0.0 103622
04:00+2юз22890 0.0 103428
07:00+2юз22890 0.0 103555
10:00+7зюз24670 0.0 1034258
13:00+11з23510 0.0 1034520
16:00+11зюз23510 0.0 1032425
19:00+7зюз12670 0.0 103322
22:00+6юз22760 0.0 103326
3 марта, ср
ср301:00+4юз23800 0.0 103346
04:00+3юз22810 0.0 103231
07:00+3юз22810 0.0 103253
10:00+8юз25590 0.0 1031297
13:00+12юз244526 0.0 1029475
16:00+12зюз254682 0.0 1027436
19:00+8юз286080 0.0 1027251
22:00+7юз4116552 0.0 1027358